This demonstration page uses our WeatherBlox Daily Observations layout. Learn more.

Left ArrowRight Arrow

44.89941, -97.11507

Hourly Observations for November 21, 2020

Temp ( °F °C ) Dew Point ( °F °C ) Humidity (%) Winds ( mph kmh ) Pressure ( in mb ) Visibility ( mi km ) Precip ( " mm )
12:53 am 00:53 Clear 21 -6.1 20 -6.7 96 96 SSE 6 9 30.56 1035 8 13 0.00 0.00
1:53 am 01:53 Clear 20 -6.7 19 -7.2 96 96 Calm 30.55 1035 7 11 0.00 0.00
2:53 am 02:53 Clear 22 -5.6 20 -6.7 92 92 SSE 3 6 30.55 1035 7 11 0.00 0.00
3:53 am 03:53 Clear 21 -6.1 19 -7.2 92 92 S 8 13 30.55 1034 8 13 0.00 0.00
4:53 am 04:53 Clear 20 -6.7 18 -7.8 92 92 S 8 13 30.54 1034 7 11 0.00 0.00
5:53 am 05:53 Clear 21 -6.1 19 -7.2 92 92 S 8 13 30.54 1034 7 11 0.00 0.00
6:53 am 06:53 Clear 22 -5.6 20 -6.7 92 92 SSE 6 9 30.54 1034 7 11 0.00 0.00
7:53 am 07:53 Sunny with Mist and Fog 20 -6.7 19 -7.2 96 96 SSE 8 13 30.54 1034 5 8 0.00 0.00
8:53 am 08:53 Sunny with Mist and Fog 24 -4.4 23 -5 96 96 S 7 11 30.53 1034 5 8 0.00 0.00
9:53 am 09:53 Sunny with Mist and Fog 30 -1.1 28 -2.2 92 92 S 8 13 30.51 1033 5 8 0.00 0.00
10:53 am 10:53 Sunny with Mist and Fog 35 1.7 31 -0.6 85 85 S 10 17 30.51 1033 6 10 0.00 0.00
11:53 am 11:53 Sunny 38 3.3 31 -0.6 76 76 S 12 19 30.48 1032 8 13 0.00 0.00
12:53 pm 12:53 Sunny 41 5 31 -0.6 67 67 S 13 20 30.44 1031 10 16 0.00 0.00
1:53 pm 13:53 Sunny 42 5.6 30 -1.1 62 62 S 14 22 30.41 1030 10 16 0.00 0.00
2:53 pm 14:53 Mostly Sunny 42 5.6 30 -1.1 62 62 S 14 22 30.38 1029 10 16 0.00 0.00
3:53 pm 15:53 Cloudy 41 5 29 -1.7 62 62 S 10 17 30.37 1028 10 16 0.00 0.00
4:53 pm 16:53 Cloudy 39 3.9 31 -0.6 73 73 S 10 17 30.35 1028 10 16 0.00 0.00
5:53 pm 17:53 Cloudy 38 3.3 30 -1.1 73 73 S 10 17 30.34 1028 10 16 0.00 0.00
6:53 pm 18:53 Cloudy with Light Rain 37 2.8 31 -0.6 79 79 SSE 13 20 30.33 1027 10 16 0.00 0.00
7:53 pm 19:53 Cloudy 37 2.8 31 -0.6 79 79 SSE 12 19 30.31 1027 10 16 0.00 0.00
8:50 pm 20:50 Cloudy with Light Rain 36 2 34 1 93 93 SE 8 13 30.31 1026 4 6 0.02 0.51
8:53 pm 20:53 Cloudy with Light Rain 36 2.2 33 0.6 89 89 SE 7 11 30.29 1026 4 6 0.02 0.51
9:36 pm 21:36 Cloudy 36 2.2 33 0.6 89 89 SSE 9 15 30.27 1025 8 13 0.01 0.25
9:53 pm 21:53 Cloudy 36 2.2 34 1.1 93 93 SSE 12 19 30.27 1025 8 13 0.01 0.25
10:53 pm 22:53 Cloudy 37 2.8 34 1.1 89 89 S 10 17 30.24 1024 9 14 0.00 0.00
11:53 pm 23:53 Cloudy 36 2.2 34 1.1 93 93 S 10 17 30.22 1024 8 13 0.00 0.00

Powered by AerisWeather